FW2365 Weather Reports


Display with metric or nautical units.
time (UTC)temp
F
wind
direction
speed
MPH
gust
MPH
rain 1hr
in
rain 24hr
in
rain mn
in
humidity
%
barometer
mb
20260504213541 59 208 1.0 2.0 0.00 0.00 0.00 43 1014.8
20260504213044 59 208 1.0 2.0 0.00 0.00 0.00 45 1014.8
20260504212541 58 208 0.0 2.0 0.00 0.00 0.00 45 1014.9
20260504212041 59 208 0.0 2.0 0.00 0.00 0.00 47 1014.9
20260504211540 59 208 0.0 2.0 0.00 0.00 0.00 46 1014.9
20260504211040 59 208 0.0 2.0 0.00 0.00 0.00 44 1014.9
20260504210541 60 208 0.0 2.0 0.00 0.00 0.00 44 1014.9
20260504210046 60 208 0.0 2.0 0.00 0.00 0.00 44 1014.8
20260504205539 60 208 0.0 2.0 0.00 0.00 0.00 43 1014.9
20260504205039 60 208 0.0 2.0 0.00 0.00 0.00 43 1014.9
20260504204539 61 208 0.0 2.0 0.00 0.00 0.00 42 1014.9
20260504204040 61 208 0.0 2.0 0.00 0.00 0.00 41 1014.9
20260504203539 61 208 0.0 2.0 0.00 0.00 0.00 40 1014.8
20260504203039 62 208 0.0 2.0 0.00 0.00 0.00 40 1014.8
20260504202538 62 208 0.0 1.0 0.00 0.00 0.00 39 1014.8
20260504202037 62 208 0.0 2.0 0.00 0.00 0.00 38 1014.7
20260504201539 62 208 0.0 2.0 0.00 0.00 0.00 38 1014.7
20260504201040 62 208 0.0 2.0 0.00 0.00 0.00 38 1014.8
20260504200538 63 208 0.0 2.0 0.00 0.00 0.00 38 1014.7
20260504200039 62 208 0.0 2.0 0.00 0.00 0.00 38 1014.7
20260504195536 63 208 0.0 2.0 0.00 0.00 0.00 40 1014.7
20260504195037 63 208 0.0 2.0 0.00 0.00 0.00 39 1014.7
20260504194542 63 208 0.0 2.0 0.00 0.00 0.00 38 1014.7
20260504194040 64 208 0.0 2.0 0.00 0.00 0.00 37 1014.7
20260504193536 64 208 0.0 2.0 0.00 0.00 0.00 37 1014.6
20260504193043 65 208 0.0 2.0 0.00 0.00 0.00 34 1014.6
20260504192536 65 208 0.0 2.0 0.00 0.00 0.00 34 1014.6
20260504192036 65 208 0.0 2.0 0.00 0.00 0.00 33 1014.5
20260504191604 66 208 0.0 3.0 0.00 0.00 0.00 33 1014.5
20260504191036 66 208 0.0 3.0 0.00 0.00 0.00 32 1014.5
20260504190536 66 208 0.0 2.0 0.00 0.00 0.00 33 1014.4
20260504190039 67 208 0.0 2.0 0.00 0.00 0.00 32 1014.4
20260504185534 67 208 0.0 2.0 0.00 0.00 0.00 31 1014.3
20260504185034 67 208 0.0 2.0 0.00 0.00 0.00 31 1014.3
20260504184544 67 209 0.0 2.0 0.00 0.00 0.00 32 1014.2
20260504184034 67 209 0.0 2.0 0.00 0.00 0.00 32 1014.2
20260504183535 67 209 0.0 2.0 0.00 0.00 0.00 30 1014.1
20260504183035 67 209 0.0 2.0 0.00 0.00 0.00 31 1014.1
20260504182534 67 209 0.0 2.0 0.00 0.00 0.00 31 1014.1
20260504182034 67 209 0.0 2.0 0.00 0.00 0.00 32 1014.1
20260504181534 68 209 0.0 2.0 0.00 0.00 0.00 31 1014.1
20260504181034 68 292 0.0 2.0 0.00 0.00 0.00 32 1014.1
20260504180534 69 294 0.0 2.0 0.00 0.00 0.00 30 1014.0
20260504180036 69 294 0.0 2.0 0.00 0.00 0.00 32 1014.0
20260504175533 70 294 0.0 2.0 0.00 0.00 0.00 32 1013.9
20260504175033 70 294 0.0 2.0 0.00 0.00 0.00 28 1013.9
20260504174533 70 294 0.0 2.0 0.00 0.00 0.00 27 1013.8
20260504174033 70 294 0.0 4.0 0.00 0.00 0.00 26 1013.7
20260504173532 70 294 1.0 6.0 0.00 0.00 0.00 26 1013.7
20260504173033 70 202 0.0 6.0 0.00 0.00 0.00 24 1013.7
20260504172534 70 266 1.0 4.0 0.00 0.00 0.00 26 1013.8
20260504172034 71 262 2.0 4.0 0.00 0.00 0.00 29 1013.7
20260504171534 71 276 1.0 3.0 0.00 0.00 0.00 25 1013.7
20260504171032 71 224 0.0 2.0 0.00 0.00 0.00 26 1013.7
20260504170533 71 224 1.0 2.0 0.00 0.00 0.00 25 1013.7
20260504151028 73 280 4.0 6.0 0.00 0.00 0.00 27 1013.4
20260504150531 73 137 0.0 2.0 0.00 0.00 0.00 28 1013.4
20260504141027 75 246 0.0 3.0 0.00 0.00 0.00 25 1013.6
20260504140523 74 185 0.0 5.0 0.00 0.00 0.00 28 1013.6
20260504130516 74 304 2.0 7.0 0.00 0.00 0.00 34 1013.7
20260504110502 71 325 2.0 9.0 0.00 0.00 0.00 41 1014.9
20260504100550 70 275 4.0 10.0 0.00 0.00 0.00 43 1015.8
20260504081526 64 309 4.0 8.0 0.00 0.00 0.00 52 1017.2
20260504081030 65 304 5.0 8.0 0.00 0.00 0.00 49 1017.2
20260504080526 64 299 2.0 5.0 0.00 0.00 0.00 52 1017.2
20260504060107 57 141 0.0 2.0 0.00 0.00 0.00 62 1018.1
20260504050546 54 141 0.0 2.0 0.00 0.00 0.00 65 1018.1
20260504045542 53 141 0.0 2.0 0.00 0.00 0.00 65 1018.1
20260504045142 53 141 0.0 2.0 0.00 0.00 0.00 66 1018.1
20260504044541 52 141 0.0 2.0 0.00 0.00 0.00 66 1018.2
20260504044041 51 141 0.0 2.0 0.00 0.00 0.00 66 1018.1
20260504043540 51 141 0.0 2.0 0.00 0.00 0.00 67 1018.1
20260504043042 51 141 0.0 2.0 0.00 0.00 0.00 67 1018.0
20260504042538 51 192 0.0 2.0 0.00 0.00 0.00 67 1018.0
20260504042037 51 192 0.0 2.0 0.00 0.00 0.00 66 1017.9
20260504041536 52 192 0.0 1.0 0.00 0.00 0.00 66 1017.9
20260504041035 52 192 1.0 2.0 0.00 0.00 0.00 64 1017.9
20260504040537 53 192 0.0 2.0 0.00 0.00 0.00 62 1017.9
20260504040035 53 192 0.0 2.0 0.00 0.00 0.00 62 1017.9
20260504035534 52 345 0.0 2.0 0.00 0.00 0.00 63 1017.9
20260504035034 52 345 0.0 2.0 0.00 0.00 0.00 63 1017.9
20260504034533 52 345 0.0 3.0 0.00 0.00 0.00 64 1018.0
20260504034037 52 345 0.0 3.0 0.00 0.00 0.00 64 1018.0
20260504033533 52 345 2.0 3.0 0.00 0.00 0.00 64 1018.1
20260504033038 52 345 0.0 2.0 0.00 0.00 0.00 64 1018.1
20260504032533 52 345 0.0 2.0 0.00 0.00 0.00 64 1018.0
20260504032032 53 345 0.0 2.0 0.00 0.00 0.00 64 1018.0
20260504031530 53 345 0.0 2.0 0.00 0.00 0.00 63 1017.9
20260504031029 53 345 0.0 2.0 0.00 0.00 0.00 62 1017.9
20260504030528 53 345 0.0 2.0 0.00 0.00 0.00 62 1017.9
20260504030028 53 345 0.0 2.0 0.00 0.00 0.00 62 1017.9
20260504025528 53 345 0.0 2.0 0.00 0.00 0.00 62 1017.9
20260504025028 54 345 0.0 2.0 0.00 0.00 0.00 62 1018.1
20260504024533 54 345 0.0 5.0 0.00 0.00 0.00 62 1018.1
20260504024027 54 345 2.0 5.0 0.00 0.00 0.00 62 1018.1
20260504023526 53 162 0.0 3.0 0.00 0.00 0.00 61 1018.1
20260504023026 54 157 0.0 2.0 0.00 0.00 0.00 58 1018.2
20260504022530 54 156 0.0 2.0 0.00 0.00 0.00 58 1018.1
20260504022025 54 156 0.0 3.0 0.00 0.00 0.00 58 1018.1
20260504021527 54 156 0.0 3.0 0.00 0.00 0.00 58 1018.1
20260504021025 54 156 0.0 3.0 0.00 0.00 0.00 58 1018.1
20260504020525 54 156 0.0 3.0 0.00 0.00 0.00 58 1018.0
20260504020024 54 156 1.0 3.0 0.00 0.00 0.00 59 1018.0
20260504015524 53 156 1.0 3.0 0.00 0.00 0.00 61 1018.0
20260504015024 54 291 1.0 2.0 0.00 0.00 0.00 60 1018.0
20260504014522 55 291 1.0 2.0 0.00 0.00 0.00 58 1018.0
20260504014024 55 291 0.0 2.0 0.00 0.00 0.00 56 1018.0
20260504013522 55 291 2.0 2.0 0.00 0.00 0.00 55 1017.9
20260504013031 56 233 0.0 2.0 0.00 0.00 0.00 54 1017.9
20260504012518 56 233 0.0 2.0 0.00 0.00 0.00 54 1017.9
20260504012023 56 233 0.0 2.0 0.00 0.00 0.00 54 1017.9
20260504011518 56 233 1.0 3.0 0.00 0.00 0.00 54 1017.8
20260504011017 55 233 1.0 3.0 0.00 0.00 0.00 55 1017.8
20260504010517 56 248 2.0 3.0 0.00 0.00 0.00 55 1017.8
20260504010017 56 262 0.0 2.0 0.00 0.00 0.00 55 1017.8
20260504005517 56 262 0.0 2.0 0.00 0.00 0.00 53 1017.8
20260504005016 56 262 0.0 2.0 0.00 0.00 0.00 53 1017.8
20260504004515 56 262 1.0 2.0 0.00 0.00 0.00 54 1017.8
20260504004015 56 271 0.0 2.0 0.00 0.00 0.00 55 1017.8
20260504003514 56 271 1.0 2.0 0.00 0.00 0.00 54 1017.8
20260504003028 56 271 0.0 2.0 0.00 0.00 0.00 53 1017.7
20260504002513 56 273 1.0 2.0 0.00 0.00 0.00 54 1017.7
20260504002013 57 273 0.0 2.0 0.00 0.00 0.00 53 1017.7
20260504001513 57 273 0.0 4.0 0.00 0.00 0.00 51 1017.7
20260504001013 57 194 0.0 2.0 0.00 0.00 0.00 51 1017.7
20260504000512 57 194 0.0 2.0 0.00 0.00 0.00 52 1017.8
20260504000012 56 194 0.0 2.0 0.00 0.00 0.00 51 1017.7
20260503235511 56 194 0.0 2.0 0.00 0.00 0.00 51 1017.7
20260503235009 57 194 1.0 2.0 0.00 0.00 0.00 51 1017.7
20260503234508 57 194 0.0 2.0 0.00 0.00 0.00 50 1017.6
20260503234009 57 194 0.0 2.0 0.00 0.00 0.00 49 1017.6
20260503233508 58 194 0.0 2.0 0.00 0.00 0.00 48 1017.6
20260503233006 58 194 0.0 2.0 0.00 0.00 0.00 48 1017.6
20260503232506 58 194 0.0 2.0 0.00 0.00 0.00 48 1017.6
20260503232006 58 194 1.0 2.0 0.00 0.00 0.00 47 1017.4
20260503231506 58 194 1.0 2.0 0.00 0.00 0.00 47 1017.4
20260503231007 58 194 1.0 2.0 0.00 0.00 0.00 46 1017.4
20260503230509 58 194 0.0 2.0 0.00 0.00 0.00 46 1017.4
20260503230005 58 194 0.0 2.0 0.00 0.00 0.00 45 1017.4
20260503225505 58 194 0.0 2.0 0.00 0.00 0.00 45 1017.3
20260503225101 58 194 0.0 2.0 0.00 0.00 0.00 45 1017.2
20260503224600 58 194 0.0 2.0 0.00 0.00 0.00 44 1017.2
20260503224059 59 194 0.0 2.0 0.00 0.00 0.00 45 1017.2
20260503223558 59 194 0.0 2.0 0.00 0.00 0.00 43 1017.2
20260503223057 59 194 0.0 2.0 0.00 0.00 0.00 43 1017.2
20260503222555 59 194 1.0 2.0 0.00 0.00 0.00 42 1017.2
20260503222054 60 194 0.0 2.0 0.00 0.00 0.00 43 1017.1
20260503221554 60 194 0.0 2.0 0.00 0.00 0.00 42 1017.1
20260503221056 60 194 0.0 2.0 0.00 0.00 0.00 41 1017.0
20260503220552 61 194 0.0 2.0 0.00 0.00 0.00 39 1016.9
20260503220050 62 194 0.0 2.0 0.00 0.00 0.00 39 1016.8
20260503215549 63 194 0.0 2.0 0.00 0.00 0.00 39 1016.8
20260503215050 63 194 0.0 2.0 0.00 0.00 0.00 44 1016.8
20260503214550 63 194 0.0 2.0 0.00 0.00 0.00 42 1016.7
20260503214056 63 194 0.0 2.0 0.00 0.00 0.00 42 1016.7